SCP
0 0 0 0 0 0 0 0 0 0 0 0 0 0 1 0 0 0 0 0 0 0 0 0 0 0 0 0 0 0 0 0 0 0 0 0 0 0
0 0 0 0 0 0 0 0 0 0 0 0 0 0 0 0 0 0 0 0 0 0 0 0 0 0 0 0 0 0 0 0 0 0 0 0 0 0
0 0 0 0 0 0 0 0 0 0 0 0 0 0 0 0 0 0 0 0 1 0 0 0 0 0 0 0 0 0 0 0 0 0 0 0 0 0
0 0 0 0 0 0 0 0 0 0 0 0 0 0 0 0 0 0 0 0 0 0 0 0 0 0 0 0 0 0 0 0 0 0 0 0 0 0
0 0 0 0 0 0 0 0 0 0 0 0 0 0 0 0 0 0 0 0 0 0 0 0 0 0 0 0 0 0 0 0 0 0 0 0 0 0
0 0 0 0 0 0 0 0 0 0 0 0 0 0 0 0 0 0 0 0 0 0 0 0 0 0 0 0 0 0 0 0 0 0 0 0 0 1
0 0 0 0 0 0 0 0 0 0 0 0 0 0 0 0 0 0 0 0 0 0 0 0 0 0 0 0 0 0 0 0 0 0 0 0 0 0
0 0 0 0 0 0 0 0 0 0 0 0 0 0 0 0 0 0 0 0 0 0 0 0 0 0 0 0 0 0 0 0 0 0 0 0 0 0
0 0 0 0 0 0 0 0 0 0 0 0 0 0 0 0 0 0 0 0 0 0 0 0 0 0 0 0 0 0 0 0 0 0 0 0 0 -0
0 0 0 0 0 0 0 0 0 0 0 0 0 0 0 0 0 0 0 0 0 0 0 0 0 0 0 0 0 0 0 0 0 0 0 0 -0 -0
0 0 0 0 0 0 0 0 0 0 -0 -0 0 0 0 0 0 0 0 0 0 0 0 0 0 0 0 0 0 0 0 0 0 0 -0 -0 -0 -0
0 0 0 0 0 0 0 0 0 0 0 0 0 0 0 0 0 0 0 0 0 0 0 0 0 0 0 0 0 0 0 0 -0 -0 -0 -0 -0 -0
0 0 0 0 0 0 0 0 0 0 -0 0 -0 0 -0 -0 0 0 0 -0 0 0 -0 0 0 0 0 0 -0 -0 -0 -0 -0 -0 -0 -0 -0 0
0 0 0 0 0 0 0 0 0 0 0 -0 0 -0 -0 -0 -0 -0 -0 -0 -0 0 0 -0 -0 0 0 -0 -0 -0 -0 -0 -0 0 0 0 0 0
0 0 -0 -0 -0 0 0 0 0 0 0 0 -0 0 0 0 0 0 0 0 -0 0 0 -0 -0 -0 -0 -0 -0 0 0 0 0 0 0 0 0 0
-0 -0 -0 -0 -0 -0 0 0 0 0 0 0 0 0 0 0 0 0 0 0 0 0 -0 0 -0 -0 -0 -0 0 -0 -0 0 0 0 0 0 0 0
-0 -0 -0 -0 0 0 0 0 0 0 0 0 0 0 0 0 0 0 0 0 0 0 0 0 0 0 0 0 -0 -0 -0 0 0 0 0 0 0 0
-0 -0 -0 -0 0 0 0 0 0 0 0 0 0 0 0 0 0 0 0 0 0 0 0 0 0 0 0 -0 -0 0 0 0 0 0 0 0 0 0
-0 -0 -0 -0 -0 0 0 0 0 0 -0 -0 -0 0 0 0 0 0 0 0 0 0 0 0 0 0 0 0 0 -0 0 0 0 0 0 0 0 0
-0 -0 -0 0 -0 -0 0 0 0 -0 0 -0 0 0 -0 -0 0 0 0 0 0 0 0 0 0 0 0 0 0 0 0 0 0 0 0 0 0 0
-0 -0 0 0 0 0 0 -0 -0 -0 -0 -0 0 -0 -0 0 0 0 0 0 0 0 0 0 0 0 0 0 0 0 0 0 0 0 0 0 0 0
0 0 0 0 0 0 0 0 0 0 0 0 0 0 0 0 0 0 0 0 0 0 0 0 0 0 0 0 0 0 0 0 0 0 0 0 0 0
0 0 0 0 0 0 0 0 0 0 0 0 0 0 0 0 0 0 0 0 0 0 0 0 0 0 0 0 0 0 0 0 0 0 0 0 0 0
Wind_Speed_500mb
28 33 36 40 45 49 57 58 53 45 61 69 63 55 54 56 62 67 68 84 75 75 75 81 79 78 75 71 67 70 68 71 77 73 69 72 66 60
19 31 34 35 39 42 40 41 50 52 55 64 69 70 65 71 60 74 78 80 83 82 85 92 89 81 77 80 76 74 78 81 78 76 69 68 62 52
20 21 24 28 24 30 36 38 37 43 54 65 59 61 67 82 86 76 65 68 73 81 81 79 90 94 89 85 85 87 88 85 82 75 68 58 52 52
17 18 21 21 26 27 29 35 37 38 44 59 53 56 55 54 65 76 86 89 78 75 74 72 91 95 103 109 111 101 99 92 86 71 65 57 49 47
15 17 19 23 26 29 32 37 40 43 42 51 58 52 55 53 56 56 60 67 72 84 79 73 67 84 101 105 101 111 113 101 81 64 61 51 46 41
13 16 17 19 25 32 34 37 43 45 43 46 51 55 56 55 54 61 61 65 67 63 72 75 74 74 88 92 110 130 110 83 75 72 63 66 54 43
13 13 17 26 30 31 33 38 41 39 41 46 51 56 57 57 54 51 61 58 61 59 58 63 60 62 74 92 102 99 84 82 80 88 80 63 47 51
10 12 18 22 20 26 30 33 33 34 40 45 39 45 52 54 58 57 58 58 58 54 48 45 51 60 73 89 93 89 81 79 78 64 61 64 63 66
11 12 15 18 17 21 30 35 28 20 31 45 48 49 58 53 50 46 50 48 53 48 40 56 61 72 79 79 79 74 72 52 29 28 34 51 55 42
11 10 11 17 24 28 31 31 23 33 26 29 28 38 44 53 40 32 36 46 46 36 46 45 48 58 52 42 37 27 15 16 20 26 36 43 49 52
13 12 13 13 19 20 22 21 32 30 25 27 28 33 31 40 35 29 24 24 23 32 32 40 35 38 31 21 18 16 19 19 20 31 38 39 44 49
16 16 20 15 21 24 17 18 24 25 32 30 22 29 28 23 25 14 6 7 15 17 14 23 35 25 17 23 19 21 22 30 38 42 46 45 47 50
12 16 14 23 11 16 12 19 19 24 24 29 26 25 16 27 15 11 14 12 10 20 17 26 37 37 16 26 18 16 17 20 27 34 40 46 48 45
14 16 17 21 2 10 9 12 9 11 29 23 25 30 33 30 31 30 25 30 28 30 40 32 20 15 14 16 15 18 22 24 28 31 31 34 34 41
20 25 29 14 8 4 4 2 13 20 19 21 14 12 16 15 12 12 12 15 15 7 9 8 12 4 6 7 8 11 15 18 26 30 32 34 36 39
25 30 27 22 18 20 20 20 18 18 17 16 17 18 17 15 15 14 7 6 5 9 14 8 8 11 10 10 11 13 17 23 20 28 34 40 43 43
24 27 26 21 16 19 19 19 20 17 13 14 14 16 16 16 16 15 12 11 11 11 12 16 15 16 16 18 19 22 25 29 31 36 40 46 50 54
27 32 30 27 23 21 21 19 19 21 18 17 16 14 12 12 10 9 8 8 9 9 10 13 16 17 21 28 30 32 32 36 37 42 44 53 61 62
40 35 37 33 31 25 22 23 22 20 22 23 22 20 18 16 16 13 14 15 15 16 18 20 24 28 32 37 32 35 37 42 44 48 53 59 72 71
45 39 40 38 36 33 29 26 24 24 25 26 27 27 27 25 25 25 24 23 24 24 27 30 32 35 41 45 42 40 45 51 47 53 56 70 72 72
46 45 44 44 43 38 35 34 31 30 30 30 30 31 32 33 35 34 34 35 36 36 39 40 41 45 41 41 46 47 46 54 60 64 60 61 64 61
51 50 48 48 46 44 41 41 38 36 35 35 35 35 35 35 37 38 39 39 40 42 43 43 41 40 38 45 53 53 51 50 56 67 61 61 59 65
57 53 52 53 51 50 49 48 45 42 39 38 37 36 35 35 35 35 37 38 40 42 44 48 50 50 50 49 52 56 54 55 57 51 55 59 63 65
Wind_Direction_500mb
270 267 268 268 267 267 267 273 276 284 278 273 274 273 275 277 279 277 275 266 267 262 265 263 255 251 246 242 242 245 243 228 242 252 254 253 250 245
273 278 277 277 279 277 274 274 270 273 277 279 277 273 269 267 270 278 276 265 265 262 262 260 255 248 247 242 241 237 244 245 242 242 244 246 245 234
298 299 297 296 292 291 283 281 279 274 276 280 285 290 281 270 272 264 270 272 264 262 262 257 257 249 245 242 243 244 243 244 237 244 238 225 228 220
313 310 305 300 300 298 293 290 283 280 283 289 290 288 288 285 278 269 264 263 266 265 264 264 265 250 246 253 253 242 242 236 230 236 221 223 222 218
318 316 314 310 311 300 298 293 289 287 284 287 295 292 290 289 282 278 269 269 265 261 263 267 270 259 261 253 251 240 234 227 219 218 216 218 220 215
326 319 323 319 319 312 307 301 297 283 284 289 292 299 300 294 284 280 275 271 272 269 258 254 254 258 261 255 238 229 213 203 199 201 208 211 214 225
322 329 320 314 324 325 316 313 307 288 287 294 296 301 303 298 284 278 277 275 278 276 270 260 255 254 249 235 222 211 201 208 226 220 215 211 213 198
325 328 331 325 337 331 321 324 313 308 301 303 302 303 308 303 288 275 276 280 280 276 271 254 251 248 239 224 220 217 218 223 236 226 236 238 211 205
306 331 334 315 329 326 341 343 338 322 310 311 293 307 309 312 295 280 277 276 272 268 244 213 204 201 199 201 204 211 218 211 225 248 242 234 225 221
275 303 315 328 308 326 339 339 332 332 327 329 321 321 323 321 319 297 276 277 266 239 204 174 186 187 189 181 177 176 198 228 240 235 235 220 222 228
261 260 279 301 305 326 337 337 344 352 336 339 339 334 327 341 334 334 303 273 218 192 195 189 158 147 144 159 186 214 222 224 228 207 201 192 207 227
242 265 271 286 308 331 338 343 338 1 2 358 321 329 358 354 38 54 20 228 210 164 173 156 149 147 160 194 195 182 189 199 193 204 216 213 228 249
217 254 238 281 324 351 348 6 32 17 13 14 27 0 345 47 38 10 29 103 96 122 109 139 142 120 101 141 168 192 202 206 213 221 232 241 244 241
211 226 238 271 284 110 61 59 78 3 3 19 48 44 58 62 68 59 67 70 90 78 98 104 111 109 113 131 147 190 209 219 225 234 240 252 257 253
205 225 227 231 165 127 346 204 297 310 319 335 334 352 346 349 359 18 36 56 81 106 118 136 141 162 160 196 181 199 213 230 236 240 246 250 255 261
202 210 202 196 229 244 274 304 309 297 294 291 304 305 309 310 316 313 320 324 315 292 310 254 217 212 230 239 236 241 243 249 249 253 258 261 263 265
201 211 223 231 249 270 281 289 289 281 276 275 280 288 292 290 291 287 282 267 261 256 249 261 255 248 251 248 256 262 265 267 267 269 267 268 269 272
215 213 225 237 243 257 272 280 280 269 261 258 261 264 262 262 266 267 263 257 266 265 252 248 253 254 262 272 275 267 265 269 272 272 269 270 274 277
231 228 237 244 249 256 259 266 268 266 259 260 265 264 263 264 265 258 256 258 259 256 257 257 259 262 265 269 279 276 265 272 275 273 278 278 281 281
232 235 243 241 250 259 260 255 260 261 261 262 262 264 262 262 263 264 265 265 267 269 267 266 264 261 262 266 275 280 274 265 265 271 276 283 279 282
239 242 241 241 245 252 259 258 258 256 254 253 256 257 258 259 263 265 268 267 267 269 271 273 274 269 266 267 271 280 279 281 274 278 284 283 286 285
236 241 241 245 248 252 255 255 258 260 258 258 257 252 253 255 259 264 266 267 267 268 271 276 275 273 270 267 270 276 275 273 279 288 282 281 283 283
240 241 242 244 247 253 257 259 257 251 251 255 256 258 257 254 256 258 262 265 268 271 273 274 274 271 266 266 270 272 278 284 298 287 284 286 289 289
Wind_Speed_850mb
28 33 36 40 45 49 57 58 53 45 61 69 63 55 54 56 62 67 68 84 75 75 75 81 79 78 75 71 67 70 68 71 77 73 69 72 66 60
19 31 34 35 39 42 40 41 50 52 55 64 69 70 65 71 60 74 78 80 83 82 85 92 89 81 77 80 76 74 78 81 78 76 69 68 62 52
20 21 24 28 24 30 36 38 37 43 54 65 59 61 67 82 86 76 65 68 73 81 81 79 90 94 89 85 85 87 88 85 82 75 68 58 52 52
17 18 21 21 26 27 29 35 37 38 44 59 53 56 55 54 65 76 86 89 78 75 74 72 91 95 103 109 111 101 99 92 86 71 65 57 49 47
15 17 19 23 26 29 32 37 40 43 42 51 58 52 55 53 56 56 60 67 72 84 79 73 67 84 101 105 101 111 113 101 81 64 61 51 46 41
13 16 17 19 25 32 34 37 43 45 43 46 51 55 56 55 54 61 61 65 67 63 72 75 74 74 88 92 110 130 110 83 75 72 63 66 54 43
13 13 17 26 30 31 33 38 41 39 41 46 51 56 57 57 54 51 61 58 61 59 58 63 60 62 74 92 102 99 84 82 80 88 80 63 47 51
10 12 18 22 20 26 30 33 33 34 40 45 39 45 52 54 58 57 58 58 58 54 48 45 51 60 73 89 93 89 81 79 78 64 61 64 63 66
11 12 15 18 17 21 30 35 28 20 31 45 48 49 58 53 50 46 50 48 53 48 40 56 61 72 79 79 79 74 72 52 29 28 34 51 55 42
11 10 11 17 24 28 31 31 23 33 26 29 28 38 44 53 40 32 36 46 46 36 46 45 48 58 52 42 37 27 15 16 20 26 36 43 49 52
13 12 13 13 19 20 22 21 32 30 25 27 28 33 31 40 35 29 24 24 23 32 32 40 35 38 31 21 18 16 19 19 20 31 38 39 44 49
16 16 20 15 21 24 17 18 24 25 32 30 22 29 28 23 25 14 6 7 15 17 14 23 35 25 17 23 19 21 22 30 38 42 46 45 47 50
12 16 14 23 11 16 12 19 19 24 24 29 26 25 16 27 15 11 14 12 10 20 17 26 37 37 16 26 18 16 17 20 27 34 40 46 48 45
14 16 17 21 2 10 9 12 9 11 29 23 25 30 33 30 31 30 25 30 28 30 40 32 20 15 14 16 15 18 22 24 28 31 31 34 34 41
20 25 29 14 8 4 4 2 13 20 19 21 14 12 16 15 12 12 12 15 15 7 9 8 12 4 6 7 8 11 15 18 26 30 32 34 36 39
25 30 27 22 18 20 20 20 18 18 17 16 17 18 17 15 15 14 7 6 5 9 14 8 8 11 10 10 11 13 17 23 20 28 34 40 43 43
24 27 26 21 16 19 19 19 20 17 13 14 14 16 16 16 16 15 12 11 11 11 12 16 15 16 16 18 19 22 25 29 31 36 40 46 50 54
27 32 30 27 23 21 21 19 19 21 18 17 16 14 12 12 10 9 8 8 9 9 10 13 16 17 21 28 30 32 32 36 37 42 44 53 61 62
40 35 37 33 31 25 22 23 22 20 22 23 22 20 18 16 16 13 14 15 15 16 18 20 24 28 32 37 32 35 37 42 44 48 53 59 72 71
45 39 40 38 36 33 29 26 24 24 25 26 27 27 27 25 25 25 24 23 24 24 27 30 32 35 41 45 42 40 45 51 47 53 56 70 72 72
46 45 44 44 43 38 35 34 31 30 30 30 30 31 32 33 35 34 34 35 36 36 39 40 41 45 41 41 46 47 46 54 60 64 60 61 64 61
51 50 48 48 46 44 41 41 38 36 35 35 35 35 35 35 37 38 39 39 40 42 43 43 41 40 38 45 53 53 51 50 56 67 61 61 59 65
57 53 52 53 51 50 49 48 45 42 39 38 37 36 35 35 35 35 37 38 40 42 44 48 50 50 50 49 52 56 54 55 57 51 55 59 63 65
Wind_Direction_850mb
270 267 268 268 267 267 267 273 276 284 278 273 274 273 275 277 279 277 275 266 267 262 265 263 255 251 246 242 242 245 243 228 242 252 254 253 250 245
273 278 277 277 279 277 274 274 270 273 277 279 277 273 269 267 270 278 276 265 265 262 262 260 255 248 247 242 241 237 244 245 242 242 244 246 245 234
298 299 297 296 292 291 283 281 279 274 276 280 285 290 281 270 272 264 270 272 264 262 262 257 257 249 245 242 243 244 243 244 237 244 238 225 228 220
313 310 305 300 300 298 293 290 283 280 283 289 290 288 288 285 278 269 264 263 266 265 264 264 265 250 246 253 253 242 242 236 230 236 221 223 222 218
318 316 314 310 311 300 298 293 289 287 284 287 295 292 290 289 282 278 269 269 265 261 263 267 270 259 261 253 251 240 234 227 219 218 216 218 220 215
326 319 323 319 319 312 307 301 297 283 284 289 292 299 300 294 284 280 275 271 272 269 258 254 254 258 261 255 238 229 213 203 199 201 208 211 214 225
322 329 320 314 324 325 316 313 307 288 287 294 296 301 303 298 284 278 277 275 278 276 270 260 255 254 249 235 222 211 201 208 226 220 215 211 213 198
325 328 331 325 337 331 321 324 313 308 301 303 302 303 308 303 288 275 276 280 280 276 271 254 251 248 239 224 220 217 218 223 236 226 236 238 211 205
306 331 334 315 329 326 341 343 338 322 310 311 293 307 309 312 295 280 277 276 272 268 244 213 204 201 199 201 204 211 218 211 225 248 242 234 225 221
275 303 315 328 308 326 339 339 332 332 327 329 321 321 323 321 319 297 276 277 266 239 204 174 186 187 189 181 177 176 198 228 240 235 235 220 222 228
261 260 279 301 305 326 337 337 344 352 336 339 339 334 327 341 334 334 303 273 218 192 195 189 158 147 144 159 186 214 222 224 228 207 201 192 207 227
242 265 271 286 308 331 338 343 338 1 2 358 321 329 358 354 38 54 20 228 210 164 173 156 149 147 160 194 195 182 189 199 193 204 216 213 228 249
217 254 238 281 324 351 348 6 32 17 13 14 27 0 345 47 38 10 29 103 96 122 109 139 142 120 101 141 168 192 202 206 213 221 232 241 244 241
211 226 238 271 284 110 61 59 78 3 3 19 48 44 58 62 68 59 67 70 90 78 98 104 111 109 113 131 147 190 209 219 225 234 240 252 257 253
205 225 227 231 165 127 346 204 297 310 319 335 334 352 346 349 359 18 36 56 81 106 118 136 141 162 160 196 181 199 213 230 236 240 246 250 255 261
202 210 202 196 229 244 274 304 309 297 294 291 304 305 309 310 316 313 320 324 315 292 310 254 217 212 230 239 236 241 243 249 249 253 258 261 263 265
201 211 223 231 249 270 281 289 289 281 276 275 280 288 292 290 291 287 282 267 261 256 249 261 255 248 251 248 256 262 265 267 267 269 267 268 269 272
215 213 225 237 243 257 272 280 280 269 261 258 261 264 262 262 266 267 263 257 266 265 252 248 253 254 262 272 275 267 265 269 272 272 269 270 274 277
231 228 237 244 249 256 259 266 268 266 259 260 265 264 263 264 265 258 256 258 259 256 257 257 259 262 265 269 279 276 265 272 275 273 278 278 281 281
232 235 243 241 250 259 260 255 260 261 261 262 262 264 262 262 263 264 265 265 267 269 267 266 264 261 262 266 275 280 274 265 265 271 276 283 279 282
239 242 241 241 245 252 259 258 258 256 254 253 256 257 258 259 263 265 268 267 267 269 271 273 274 269 266 267 271 280 279 281 274 278 284 283 286 285
236 241 241 245 248 252 255 255 258 260 258 258 257 252 253 255 259 264 266 267 267 268 271 276 275 273 270 267 270 276 275 273 279 288 282 281 283 283
240 241 242 244 247 253 257 259 257 251 251 255 256 258 257 254 256 258 262 265 268 271 273 274 274 271 266 266 270 272 278 284 298 287 284 286 289 289